Lapse_Rate
3.1 3.3 3.5 3.9 4.5 5.5 6.1 6.6 6.9 6.8 6.5 6.2 6.0 5.8 6.1 6.9 7.0 6.4 5.8 6.0 5.7 6.0 6.1 6.5 7.3 7.1 7.5 6.8 6.6 6.2 6.1 6.2 6.3 6.6 6.6 7.0 7.2 7.4 6.7 6.9 7.4 7.6 7.7 7.7 7.7
3.0 3.3 3.5 3.7 4.4 5.3 6.2 6.4 6.5 6.7 6.2 6.0 6.0 6.2 6.9 7.0 6.8 7.0 6.2 5.9 5.9 5.9 6.1 6.3 6.6 7.1 6.9 6.9 6.8 6.3 6.2 6.2 6.4 6.8 6.4 6.7 7.0 7.6 6.9 6.7 7.2 7.5 7.7 7.7 7.7
3.0 3.2 3.3 3.5 4.3 5.3 6.1 6.2 6.4 6.4 6.0 5.9 6.0 6.6 7.2 7.2 7.0 7.1 7.1 6.3 6.3 6.0 6.2 6.0 6.2 6.5 7.0 6.6 6.5 6.3 6.1 6.2 6.5 6.8 6.5 6.7 6.6 7.0 7.3 6.8 6.8 7.2 7.5 7.6 7.8
3.0 3.2 3.1 3.5 4.4 5.3 6.1 6.1 6.2 6.1 5.9 6.0 6.0 6.6 7.2 7.1 7.1 7.3 7.5 6.6 6.2 5.9 6.0 6.0 6.0 6.0 6.5 6.6 6.4 6.2 6.1 6.4 5.9 6.3 6.5 6.3 6.5 6.8 7.1 7.1 6.9 7.1 7.3 7.4 7.5
3.2 3.3 3.1 3.4 4.2 5.1 6.1 6.1 6.0 5.8 5.9 5.9 6.1 6.9 7.4 7.4 7.4 7.5 7.6 6.9 6.1 6.0 5.7 6.3 6.1 5.7 6.5 6.0 6.2 6.3 6.1 6.3 6.2 6.5 6.5 6.6 6.7 6.6 6.9 7.2 7.0 7.0 7.0 7.0 7.1
3.3 3.2 3.1 3.5 4.3 5.0 6.1 6.0 5.9 5.6 5.8 6.0 6.3 7.3 7.7 7.8 7.5 7.5 7.7 7.1 6.5 5.9 6.1 6.5 6.3 5.6 6.3 5.9 6.2 6.2 6.3 6.4 6.3 6.5 6.4 6.8 6.7 6.6 6.6 7.0 7.0 7.1 7.0 6.7 6.7
3.3 3.2 3.3 3.5 4.2 5.0 5.9 5.8 5.8 5.6 5.8 6.0 6.4 7.5 8.0 7.8 7.7 7.8 7.7 7.2 6.5 6.8 6.3 6.5 6.0 5.9 5.8 6.2 6.2 6.0 6.2 6.5 6.4 6.3 6.3 6.6 6.7 6.8 6.6 6.4 6.7 6.9 6.9 6.6 6.7
3.3 3.2 3.3 3.7 4.3 5.0 5.7 5.8 5.8 5.6 5.8 6.0 6.4 7.3 8.0 8.0 7.9 7.8 7.9 7.1 6.7 6.3 6.3 6.6 6.4 6.0 6.5 6.4 6.3 6.1 6.6 6.5 6.2 6.3 6.5 6.4 6.2 6.8 6.6 6.6 6.5 6.5 6.8 6.7 6.6
3.4 3.3 3.3 3.7 4.4 4.9 5.8 5.9 5.8 5.7 5.9 6.1 6.4 7.3 7.8 7.9 7.8 7.7 7.3 6.6 6.8 6.2 6.5 6.5 6.3 6.3 6.5 6.6 6.4 6.4 6.8 6.6 6.3 6.1 6.2 6.2 6.0 6.3 6.1 6.6 6.5 6.5 6.5 6.7 6.6
3.6 3.5 3.4 3.8 4.4 5.0 5.8 5.9 5.8 5.8 6.0 6.2 6.6 7.3 7.7 7.9 7.8 7.7 7.0 6.7 6.5 6.3 6.5 6.4 6.5 6.4 6.4 6.6 6.9 6.5 7.0 6.5 6.2 5.8 5.5 5.9 6.0 6.1 6.3 6.6 6.8 6.6 6.4 6.5 6.7
3.6 3.5 3.5 3.8 4.4 4.9 5.8 5.9 5.8 5.7 5.9 6.2 6.5 7.3 7.6 7.8 7.8 7.8 6.8 6.5 6.6 6.3 6.3 6.5 6.5 6.1 6.4 6.6 7.1 6.7 6.4 5.9 5.9 5.7 6.2 6.1 5.8 6.4 6.7 6.8 6.3 6.4 6.4 6.3 6.6
3.5 3.5 3.4 3.6 4.1 4.8 5.9 6.2 5.7 5.7 5.9 6.3 6.5 7.3 7.6 7.7 7.6 7.5 6.8 6.7 6.7 6.2 6.5 6.4 6.4 6.4 6.4 6.5 6.5 6.6 6.6 6.8 6.5 6.6 6.4 6.4 6.5 6.3 6.3 6.6 6.8 6.9 6.4 6.5 6.7
3.5 3.6 3.5 3.5 4.1 4.6 5.7 6.2 5.8 5.6 5.9 6.2 6.6 7.4 7.6 7.4 7.3 7.5 7.2 6.6 7.0 6.3 6.4 6.1 6.4 6.2 6.5 6.6 6.7 6.7 6.8 6.6 6.9 6.6 6.4 6.1 6.3 6.2 6.6 6.7 7.0 6.4 6.4 6.5 6.5
3.6 3.7 3.5 3.4 4.0 4.6 5.6 6.3 5.9 5.6 5.6 6.2 6.8 7.1 7.3 7.5 7.1 7.1 7.2 6.8 6.8 6.3 6.3 6.3 6.2 6.3 6.3 6.4 6.9 6.4 6.6 6.7 6.8 6.7 7.0 6.4 7.6 6.5 6.6 7.2 6.9 7.5 6.7 7.0 6.5
3.7 3.7 3.6 3.4 3.9 4.4 5.4 6.3 5.8 5.6 6.4 6.2 6.7 6.9 7.1 7.1 6.8 7.1 7.3 7.1 6.8 6.1 6.1 6.0 6.3 6.4 6.3 6.3 6.6 6.8 6.7 6.6 6.6 6.8 6.7 6.5 6.7 7.6 6.8 6.9 6.8 6.7 6.7 6.5 6.8
3.7 3.7 3.6 3.5 3.8 4.1 5.4 6.2 5.7 5.5 6.1 6.0 6.4 6.7 7.1 6.9 6.8 6.7 7.1 7.2 6.9 6.2 6.3 6.2 6.1 6.2 6.2 6.3 6.5 6.9 6.6 6.3 6.4 6.4 6.7 6.9 6.7 7.7 7.0 6.5 6.4 6.6 6.9 6.4 6.7
3.7 3.9 3.5 3.4 3.5 3.9 5.1 6.1 5.9 5.7 5.7 6.0 6.1 6.1 7.0 6.9 6.6 6.7 6.9 7.3 6.7 6.4 6.6 6.3 6.1 6.2 6.2 6.3 6.6 6.7 6.7 6.4 6.3 6.1 6.8 6.3 6.4 7.3 7.2 6.8 6.5 6.5 6.6 6.4 6.2
3.9 3.9 3.5 3.4 3.2 3.7 4.7 6.1 6.0 5.6 5.7 5.9 6.1 6.3 6.1 6.6 6.5 6.6 6.8 7.2 7.2 7.0 6.4 6.5 6.1 6.3 6.1 6.4 6.4 6.6 7.0 7.1 6.8 6.6 7.2 6.1 6.7 7.6 7.6 7.6 7.2 6.7 6.3 6.7 6.6
4.1 3.8 3.5 3.3 3.2 3.5 4.5 5.4 5.9 5.7 5.9 5.9 5.9 6.4 6.5 6.4 6.5 6.6 6.5 6.8 6.9 6.6 6.5 6.6 6.2 6.4 6.3 6.4 6.5 6.4 6.4 6.4 6.0 5.7 6.8 6.9 6.8 7.7 7.6 7.5 7.4 7.1 6.9 6.5 6.4
4.2 3.9 3.5 3.2 3.2 3.3 4.0 4.8 5.6 5.8 5.9 5.9 6.0 6.0 6.3 6.1 6.3 6.6 6.9 6.8 6.7 6.7 6.5 6.5 6.3 6.1 6.0 6.3 6.3 6.5 6.6 6.4 6.2 6.5 7.1 6.8 7.0 7.9 7.3 7.5 7.4 7.4 7.3 7.1 6.8
4.1 3.9 3.6 3.0 3.3 3.2 3.3 4.1 5.2 5.9 5.9 5.7 6.0 6.0 6.0 6.2 6.5 6.4 6.3 6.3 6.3 6.4 6.6 6.5 6.5 6.2 6.2 6.0 6.3 6.4 6.3 6.3 6.4 6.4 7.5 7.5 7.9 7.2 7.2 7.3 7.3 7.3 7.4 7.2 7.2
4.2 3.8 3.6 3.0 3.0 3.1 3.1 3.7 4.8 5.8 5.9 5.9 6.0 6.2 6.2 6.4 6.7 6.7 6.5 6.3 6.3 6.2 6.5 6.5 6.6 6.2 6.1 6.2 6.3 6.2 6.3 6.5 6.8 6.5 6.1 6.4 7.6 7.4 7.5 7.1 7.3 7.5 7.4 7.2 7.0
4.3 4.0 3.6 3.1 2.8 2.9 3.0 3.4 4.2 5.3 6.0 6.1 6.2 6.3 6.2 6.3 6.2 6.6 6.3 6.0 5.9 6.0 6.1 6.3 6.1 6.0 6.0 6.0 6.0 5.9 6.3 6.5 6.3 6.4 5.7 7.0 7.4 7.6 7.7 7.4 7.6 7.6 7.4 7.0 6.8
4.1 3.8 3.6 3.1 2.9 2.8 2.9 3.1 4.1 5.0 5.6 6.3 6.2 6.3 6.2 6.2 6.4 6.2 6.1 6.0 5.7 5.9 6.1 6.4 6.4 6.5 7.0 6.9 6.7 6.1 6.6 6.6 6.3 5.8 6.4 6.1 6.9 7.0 7.5 7.6 7.4 7.1 7.2 7.0 6.7
4.3 4.1 3.7 3.4 3.0 2.9 2.7 2.6 3.5 4.8 5.5 6.1 6.3 6.4 6.4 6.3 6.3 6.3 6.4 6.2 6.4 6.3 6.3 6.3 6.5 6.6 6.6 6.5 6.5 6.5 6.5 6.6 6.1 6.4 5.7 6.7 6.5 6.8 7.4 7.4 7.3 7.2 6.8 6.7 6.6
4.6 4.2 4.0 3.4 3.2 2.9 2.7 2.6 3.0 4.4 5.4 5.9 6.2 6.2 6.4 6.5 6.6 6.4 6.4 6.4 6.5 6.3 6.3 6.4 6.5 6.5 6.5 6.4 6.3 6.3 6.4 6.5 6.4 6.4 5.7 5.9 5.8 6.7 7.4 6.9 6.8 6.6 6.3 6.2 6.2
4.4 4.4 4.1 3.9 3.4 3.0 2.8 2.8 3.0 3.9 5.0 5.8 6.0 6.0 6.2 6.2 6.4 6.3 6.3 6.3 6.4 6.4 6.5 6.5 6.5 6.5 6.5 6.5 6.3 6.2 7.3 7.1 7.1 7.2 6.9 6.0 7.1 6.7 6.5 6.3 6.3 6.4 6.3 6.8 6.5
Wind_Speed
17 17 17 16 16 17 20 17 14 11 9 7 4 5 5 4 4 6 11 6 5 7 3 5 8 6 5 8 7 4 10 16 23 16 10 2 5 1 1 1 5 5 3 5 8
15 17 16 17 15 16 18 16 14 12 8 3 1 1 3 1 8 11 6 9 11 13 8 8 13 10 7 10 8 10 15 25 21 16 8 6 2 2 3 6 4 3 6 5 11
17 15 17 16 14 14 14 14 12 11 8 5 3 1 2 1 8 3 3 9 17 16 8 3 10 11 8 10 11 14 19 17 13 16 13 8 4 1 5 6 6 9 10 4 9
13 15 16 16 15 12 12 13 11 9 8 5 3 2 4 3 2 2 13 15 16 14 5 5 10 12 11 13 16 14 15 12 10 10 8 12 7 2 2 6 3 7 8 1 8
14 13 14 15 14 11 10 9 8 8 6 4 2 4 2 3 3 6 13 12 11 11 7 11 15 16 16 16 15 15 16 13 9 6 7 9 9 1 3 4 2 5 11 2 3
17 13 13 15 14 13 10 6 5 6 5 4 3 2 1 1 4 6 10 7 7 9 6 6 10 12 14 12 16 14 5 19 11 6 3 6 7 2 2 4 2 6 8 7 3
16 13 11 14 15 12 11 8 2 2 3 2 2 1 2 3 4 8 4 2 2 5 4 6 2 9 11 11 6 13 7 8 12 10 6 1 9 13 6 6 10 8 5 6 6
16 13 12 11 15 12 10 10 3 1 1 2 2 2 2 1 5 4 3 2 2 2 11 6 4 2 7 5 11 10 16 9 13 11 3 8 21 24 13 8 12 8 7 4 6
15 14 13 11 14 13 9 11 3 3 1 0 2 3 0 4 2 4 4 3 4 4 7 5 1 4 6 13 11 13 12 21 10 14 7 13 12 13 10 14 14 11 7 5 6
14 16 14 11 13 12 8 4 6 3 2 1 1 3 1 3 5 2 2 3 2 6 4 7 2 4 10 13 14 14 11 13 13 11 10 13 18 3 3 8 18 14 10 8 4
14 14 14 13 13 8 2 2 3 3 3 1 1 2 1 7 3 1 2 0 4 4 5 6 1 8 16 15 5 14 10 11 9 8 12 12 13 13 7 9 15 17 14 14 8
15 15 15 14 11 2 1 2 1 2 2 1 2 2 2 2 2 1 4 1 3 7 8 3 2 9 10 10 11 14 13 13 8 12 12 10 14 13 13 14 13 15 18 17 12
14 14 15 14 4 2 2 1 4 3 1 2 0 1 1 2 1 3 4 4 1 8 7 7 3 12 13 13 13 14 16 12 10 10 11 5 12 16 17 16 14 14 18 18 18
14 14 13 2 3 2 2 4 3 1 2 3 1 2 1 2 2 3 6 2 1 7 9 5 8 12 11 15 14 13 10 13 11 12 5 11 4 10 18 17 19 19 18 21 17
14 14 8 4 3 2 2 6 3 2 1 1 1 1 1 3 2 3 4 3 3 4 4 3 10 12 16 15 10 5 12 10 9 10 4 7 5 3 6 20 20 18 19 18 17
16 10 5 4 1 1 6 4 2 2 4 1 0 2 0 4 3 2 1 4 1 6 6 5 11 4 9 5 3 13 13 9 5 2 6 11 11 4 5 11 12 17 19 16 14
14 2 6 4 3 7 4 1 1 3 1 2 2 1 3 1 3 4 1 2 2 5 3 5 6 1 4 10 10 9 17 5 4 5 5 1 9 11 10 9 7 10 18 19 15
5 9 4 1 3 6 2 1 3 1 2 5 3 5 2 3 1 1 4 1 1 3 3 3 4 5 3 5 7 15 10 3 6 5 5 3 6 2 2 2 2 7 7 9 16
5 2 2 1 4 0 2 0 2 3 2 4 8 4 3 3 3 3 2 4 1 1 2 3 3 2 6 2 2 4 6 2 4 1 2 3 4 9 5 3 4 5 5 10 10
3 3 2 2 1 1 1 1 1 2 1 2 1 1 4 6 5 3 4 4 4 2 2 2 5 1 4 1 4 2 9 3 0 5 4 3 4 3 5 7 6 3 6 7 7
3 3 1 1 2 1 1 1 1 4 3 2 1 4 2 2 3 4 3 1 3 3 5 2 2 4 8 3 8 4 4 1 1 2 2 2 3 5 4 4 7 7 5 4 5
3 2 1 1 2 1 1 1 2 2 3 2 1 2 4 3 1 1 2 1 12 6 6 3 4 4 2 1 1 1 3 11 6 5 0 3 4 6 3 2 4 6 4 2 3
3 3 2 1 2 2 1 1 1 2 2 2 1 1 1 4 2 2 3 2 8 7 5 5 3 6 4 3 2 5 8 4 3 2 7 6 3 2 2 3 1 4 3 4 6
3 3 2 2 2 2 2 1 2 1 1 1 1 3 5 4 1 4 3 2 5 2 2 2 3 3 6 2 4 7 14 14 10 5 11 15 13 7 9 10 6 11 5 5 9
1 2 1 3 3 2 1 1 2 2 2 2 1 3 1 3 4 5 2 4 3 3 1 3 1 1 1 2 2 3 9 16 14 18 15 12 19 18 18 18 15 8 6 7 10
3 3 2 2 1 3 1 2 2 1 2 1 3 3 1 2 2 4 6 4 2 4 3 1 2 1 2 2 4 7 11 13 18 20 21 24 27 19 16 12 12 15 9 7 12
2 1 1 1 3 3 2 2 3 1 1 4 2 1 5 4 5 4 2 1 2 4 4 2 4 3 1 1 3 9 18 17 11 12 14 18 20 14 13 14 12 14 14 15 15
Wind_Direction
345 346 344 349 350 349 350 348 347 344 332 322 285 249 226 280 302 242 242 227 223 273 291 243 208 196 207 206 205 193 208 214 204 203 191 132 177 79 340 284 64 44 10 336 144
349 347 342 346 354 353 351 0 3 2 2 16 254 203 200 137 272 256 265 246 254 260 251 215 191 179 206 204 191 198 213 217 216 210 159 128 148 353 200 145 80 69 45 28 142
348 349 341 346 353 353 350 1 14 22 32 48 66 103 138 114 263 212 343 290 226 223 279 280 198 189 214 193 193 208 210 207 202 207 160 129 112 349 160 94 52 4 348 16 156
344 348 342 342 342 352 356 358 19 34 42 52 82 120 127 192 261 27 333 324 230 178 248 187 191 180 201 195 192 205 213 192 156 155 169 142 126 130 344 105 87 19 357 157 179
348 345 345 336 336 343 347 355 17 24 33 29 47 96 224 216 270 352 338 354 194 174 199 213 185 184 195 196 186 219 189 200 150 133 111 144 118 102 226 152 145 20 40 110 180
340 346 344 337 335 334 333 356 5 23 34 46 66 5 294 251 350 325 336 49 30 185 183 209 201 186 196 195 192 184 162 197 160 138 117 213 162 139 147 168 242 354 25 52 234
335 339 342 338 330 327 328 327 353 10 17 45 26 336 260 17 330 333 331 83 61 165 208 211 8 220 165 167 181 178 124 196 184 176 180 162 230 233 229 261 286 303 340 19 38
334 336 331 341 326 320 318 323 321 249 303 59 30 303 291 342 329 29 33 73 346 16 253 312 308 227 198 134 168 162 194 189 185 180 141 180 227 224 219 265 275 286 290 323 6
334 335 331 341 323 320 320 321 263 180 206 10 274 309 155 328 356 30 6 136 158 279 267 267 134 239 159 165 161 185 185 207 172 203 159 183 230 240 267 256 260 264 273 297 330
335 334 330 338 319 310 326 24 107 137 156 179 207 237 90 342 330 4 61 57 153 295 222 210 170 187 180 177 181 175 199 181 192 189 192 211 238 157 167 265 244 253 259 258 294
336 328 331 329 313 307 325 189 169 170 221 354 75 2 19 322 266 11 42 87 128 253 173 173 161 182 177 189 191 146 158 175 160 170 198 220 227 233 231 243 245 253 255 245 255
333 331 328 320 313 97 183 216 50 33 141 175 295 278 257 325 291 145 342 244 192 196 163 152 161 204 156 160 164 175 175 178 159 177 207 205 231 235 231 231 230 248 251 239 242
331 328 324 320 97 163 223 162 124 204 237 117 351 304 293 291 345 301 319 114 183 167 239 135 147 172 173 179 167 173 186 171 161 153 200 214 245 238 237 234 230 241 245 238 235
329 326 322 339 177 165 200 152 158 238 193 46 103 94 267 276 173 148 227 251 86 156 202 160 154 169 177 174 168 170 195 170 151 169 211 202 268 221 220 222 227 230 236 231 214
327 322 311 225 118 166 111 159 151 229 54 23 16 45 8 305 345 180 217 101 153 146 181 118 151 176 196 172 189 130 166 190 189 203 216 194 247 243 235 227 231 236 238 246 212
326 320 159 137 157 56 147 148 234 226 55 142 5 118 66 356 23 329 77 149 205 84 64 98 114 185 183 132 187 143 137 106 114 199 238 224 220 251 226 240 247 229 243 237 219
337 171 161 163 120 157 158 233 213 26 138 132 124 175 125 35 73 344 29 97 130 154 101 110 120 343 240 133 146 184 152 126 181 208 232 45 218 254 282 243 258 245 233 233 221
52 119 116 8 153 151 203 235 80 328 196 127 135 130 120 151 78 230 142 73 23 55 114 136 155 151 200 162 183 185 177 196 194 197 190 175 220 248 306 328 335 260 256 251 237
142 99 98 43 141 198 254 32 104 208 161 142 150 182 175 224 205 196 205 135 297 33 127 153 85 169 231 53 213 187 203 23 94 47 221 154 241 268 318 252 249 258 238 243 230
159 144 82 325 237 49 257 71 125 214 193 231 123 14 125 136 164 232 201 144 129 202 277 133 112 252 134 223 68 224 145 172 301 171 216 155 253 176 32 11 356 315 279 248 228
164 153 68 305 268 197 8 221 189 197 224 212 149 120 112 138 165 179 150 164 131 225 231 195 102 142 150 233 201 156 189 126 140 331 264 177 168 151 98 350 336 354 335 273 218
174 142 45 353 224 260 210 180 151 151 178 232 299 66 141 194 232 188 144 82 173 205 170 184 124 123 103 86 359 199 224 222 233 192 195 322 237 172 210 309 308 360 18 45 166
150 107 89 24 249 188 167 179 248 161 183 174 160 291 138 153 160 287 114 115 182 203 175 190 133 132 135 193 212 228 209 215 232 22 204 235 186 137 196 207 158 30 17 119 147
169 133 138 195 293 286 146 103 130 107 94 283 11 192 167 134 74 151 141 119 173 264 136 197 169 225 198 110 139 200 213 210 200 215 241 230 256 213 220 220 264 313 284 203 175
6 113 23 168 194 185 195 92 126 97 5 21 113 39 259 137 137 134 140 138 130 134 77 334 45 79 7 90 166 244 224 212 212 227 237 257 244 246 260 276 300 318 298 236 207
161 157 130 96 125 176 340 104 101 62 323 51 97 29 251 73 26 157 155 186 173 148 149 95 117 101 287 220 245 262 243 230 231 239 252 254 263 264 253 258 263 274 275 241 225
137 99 183 120 156 189 143 136 118 308 112 44 336 114 78 37 346 331 332 81 131 185 157 172 152 166 228 263 257 266 243 225 225 231 238 247 254 275 259 259 262 273 265 247 241